sat.trackr.live / text

‹ back to catalog

ONEWEB-0169

NORAD 48077 · 2021-025AM

PAYLOAD ACTIVE UNKNOWN

§ Identity

Operator
Country
UK
Launch date
2021-03-25
Launch site
VOSTO
Launch vehicle
Mass (kg)
RCS (m²)

Purposes: comms

External: N2YO · Heavens-Above · Gunter

§ Orbital elements

Epoch: 2026-05-24T22:48:00.302400Z

Period
109.63 min
Inclination
87.8941°
Eccentricity
0.0001859
Mean motion
13.13468446 rev/d
Perigee alt
1,208.4 km
Apogee alt
1,211.2 km
Semi-major
7,587.9 km
B*
9.4083e-4
RAAN
324.8511°
Arg perigee
95.2190°
Mean anomaly
264.9151°
Rev number
24,925

§ Raw data

ONEWEB-01691 48077U 21025AM  26144.95000350  .00000356  00000+0  94083-3 0  99952 48077  87.8941 324.8511 0001859  95.2190 264.9151 13.13468446249258

JSON: /api/v1/satellites/48077 · /tle

For live sub-satellite position, see the globe view (requires WebGL).

§ Visibility from observer

Set your observer location to see the next 7 days of passes ≥ 10°. The values pass through the URL so the page stays shareable.

No JS? Fill the form by hand. The geolocation button needs JavaScript.